Effective Sunday, March 17, 2024, the National Weather Service National Data Buoy Center will discontinue its Dial-A-Buoy Interactive Voice Response system. For more information, see Service Change Notice 24-06 (PDF).

Station 51001 (LLNR 28006) - NORTHWESTERN HAWAII ONE - 188 NM NW of Kauai Island, HI Image indicating link to RSS feed of recent meteorological observations for station 51001


Conditions at 51001 as of
(9:10 am HAST)
1910 GMT on 02/29/2024:
     

Click on the graph icon in the table below to see a time series plot of the last five days of that observation.

5-day plot - Wind Direction Wind Direction (WDIR): E ( 90 deg true )
5-day plot - Wind Speed Wind Speed (WSPD): 15.5 kts
5-day plot - Wind Gust Wind Gust (GST): 19.4 kts
5-day plot - Atmospheric Pressure Atmospheric Pressure (PRES):30.20 in
5-day plot - Air Temperature Air Temperature (ATMP): 71.6 °F
5-day plot - Water Temperature Water Temperature (WTMP): 72.9 °F
5-day plot - Dew Point Dew Point (DEWP): 63.3 °F
5-day plot - Wind Speed at 10 Meters Wind Speed at 10 meters (WSPD10M): 17.5 kts
5-day plot - Wind Speed at 20 Meters Wind Speed at 20 meters (WSPD20M): 19.4 kts
5-day plot -  Wind Speed, Wind Gust and Atmospheric Pressure Combined plot of Wind Speed, Gust, and Air Pressure
Supplemental Measurements
Highest 1-minute Wind Speed
Time (HAST)5-day plot - 1-Minute Wind Speed WSPD 5-day plot - 1-Minute Wind Direction WDIR
9:07 am 17.5 kts-
Previous observations
TIME
(HAST)
5-day plot - Wind Direction
WDIR
 
5-day plot - Wind Speed
WSPD
kts
5-day plot - Wind Gust
GST
kts
5-day plot - Wave Height
WVHT
ft
5-day plot - Dominant Wave Period
DPD
sec
5-day plot - Average Wave Period
APD
sec
5-day plot - Mean Wave Direction
MWD
 
5-day plot - Atmospheric Pressure
PRES
in
5-day plot - Pressure Tendency
PTDY
in
5-day plot - Air Temperature
ATMP
°F
5-day plot - Water Temperature
WTMP
°F
5-day plot - Dew Point
DEWP
°F
5-day plot - Salinity
SAL
psu
5-day plot - Visibility
VIS
nmi
5-day plot - Tide (above MLLW)
TIDE
ft
2024-02-29 09:00 am E 15.5 19.4----30.20+0.04 71.6 72.9 63.1---
2024-02-29 08:50 am E 15.5 19.4 7.2 86.1 E30.19- 71.4 72.9 63.0---
2024-02-29 08:40 am E 15.5 17.5----30.19- 71.6 72.9 63.7---
2024-02-29 08:30 am E 15.5 19.4----30.19- 71.4 72.9 63.1---
2024-02-29 08:20 am E 15.5 19.4 6.9 85.9 E30.19- 71.2 72.9 64.8---
2024-02-29 08:10 amENE 15.5 21.4 6.9-5.9 E30.19- 71.2 72.9 64.9---
2024-02-29 08:00 am E 15.5 19.4----30.19+0.03 71.2 72.9 64.4---
2024-02-29 07:50 am E 15.5 19.4 6.9 75.9 E30.19- 71.2 72.9 64.2---
2024-02-29 07:40 am E 15.5 19.4----30.19- 71.1 72.9 64.6---
2024-02-29 07:30 amENE 15.5 19.4----30.19- 71.1 72.9 64.9---
2024-02-29 07:20 am E 13.6 19.4 7.2 75.9 E30.19- 71.1 72.9 64.4---
2024-02-29 07:10 amENE 13.6 19.4 7.2-5.9 E30.18- 71.2 72.9 64.4---
2024-02-29 07:00 am E 13.6 17.5----30.18+0.02 71.2 72.9 63.3---
2024-02-29 06:50 am E 13.6 19.4 7.2 75.8 E30.18- 71.2 72.9 63.5---
2024-02-29 06:40 am E 13.6 17.5----30.17- 70.9 72.9 63.5---
2024-02-29 06:30 amENE 13.6 17.5----30.17- 70.7 72.9 64.4---
2024-02-29 06:20 amENE 13.6 17.5 7.5 86.0 E30.16- 70.9 73.0 64.9---
2024-02-29 06:10 amENE 13.6 17.5 7.5-6.0 E30.16- 70.7 72.9 64.6---
2024-02-29 06:00 amENE 13.6 17.5----30.16+0.00 70.5 73.0 64.4---
2024-02-29 05:50 amENE 15.5 19.4 6.9 96.0ESE30.16- 70.9 72.9 64.6---
2024-02-29 05:40 amENE 13.6 15.5----30.15- 70.9 72.9 64.2---
2024-02-29 05:30 amENE 11.7 15.5----30.16- 70.7 72.9 63.9---
2024-02-29 05:20 amENE 11.7 17.5 7.9 86.2 E30.16- 70.9 73.0 63.9---
2024-02-29 05:10 am E 13.6 17.5 7.9-6.2 E30.15- 70.9 73.0 63.5---
2024-02-29 05:00 am E 13.6 17.5----30.16-0.02 70.7 73.0 63.5---
2024-02-29 04:50 am E 13.6 17.5 8.2 86.3 E30.15- 71.1 73.0 63.9---
2024-02-29 04:40 am E 13.6 17.5----30.15- 70.9 73.0 63.1---
2024-02-29 04:30 am E 13.6 17.5----30.15- 71.1 73.0 63.7---
2024-02-29 04:20 am E 15.5 19.4 7.9 86.1ESE30.15- 71.1 73.0 63.1---
2024-02-29 04:10 am E 15.5 19.4 7.9-6.1ESE30.15- 71.1 73.0 63.3---
2024-02-29 04:00 am E 13.6 17.5----30.16-0.04 71.1 73.0 63.1---
2024-02-29 03:50 am E 13.6 17.5 7.5 96.0ESE30.16- 71.1 73.0 63.3---
2024-02-29 03:40 am E 13.6 17.5----30.16- 71.2 73.0 64.0---
2024-02-29 03:30 am E 13.6 17.5----30.16- 71.2 73.0 63.3---
2024-02-29 03:20 am E 13.6 17.5 7.9 86.2 E30.16- 71.2 73.0 62.8---
2024-02-29 03:10 am E 15.5 17.5 7.9-6.2 E30.16- 71.1 73.0 62.8---
2024-02-29 03:00 am E 15.5 19.4----30.16-0.03 71.2 73.0 63.0---
2024-02-29 02:50 am E 15.5 19.4 7.2 86.0 E30.16- 71.1 73.0 62.6---
2024-02-29 02:40 am E 15.5 19.4----30.16- 71.2 72.9 63.0---
2024-02-29 02:30 am E 15.5 19.4----30.17- 71.2 72.9 63.0---
2024-02-29 02:20 am E 15.5 21.4 7.5 86.1 E30.17- 71.1 72.9 62.6---
2024-02-29 02:10 am E 15.5 19.4----30.17- 71.2 72.9 63.0---
2024-02-29 02:00 am E 15.5 19.4----30.18-0.02 71.2 72.9 63.0---
2024-02-29 01:50 am E 17.5 21.4 7.9 86.2 E30.18- 71.1 72.9 62.6---
2024-02-29 01:40 am E 15.5 19.4----30.18- 71.1 72.9 63.1---
2024-02-29 01:30 am E 15.5 21.4----30.18- 71.2 72.9 63.3---
2024-02-29 01:20 am E 15.5 19.4 7.5 86.3 E30.18- 71.1 72.9 63.3---
2024-02-29 01:10 am E 15.5 19.4 7.5-6.3 E30.19- 71.1 72.9 63.7---
2024-02-29 01:00 am E 15.5 21.4----30.19+0.00 71.2 72.9 63.9---
2024-02-29 12:50 am E 15.5 21.4 7.5 86.2 E30.19- 71.2 72.9 63.7---
2024-02-29 12:40 am E 17.5 19.4 7.5-6.2 E30.19- 71.1 72.9 63.3---
2024-02-29 12:30 am E 17.5 21.4----30.19- 71.1 73.0 63.3---
2024-02-29 12:20 am E 17.5 21.4 7.5 86.1ESE30.19- 71.1 73.0 63.3---
2024-02-29 12:10 am E 17.5 21.4 7.5-6.1ESE30.19- 71.1 72.9 63.0---
2024-02-29 12:00 am E 17.5 21.4----30.19+0.00 70.9 72.9 63.1---
2024-02-28 11:50 pm E 15.5 21.4 7.5 86.2 E30.19- 70.9 73.0 64.2---
2024-02-28 11:40 pm E 15.5 19.4----30.20- 70.7 73.0 63.7---
2024-02-28 11:30 pm E 15.5 21.4----30.20- 70.5 72.9 63.9---
2024-02-28 11:20 pm E 15.5 19.4 8.2 86.3 E30.20- 70.3 72.9 63.3---
2024-02-28 11:10 pm E 17.5 21.4 8.2-6.3 E30.20- 70.3 72.9 62.4---
2024-02-28 11:00 pm E 17.5 21.4----30.20+0.01 70.3 72.9 63.5---
2024-02-28 10:50 pm E 17.5 19.4 8.5 96.3ENE30.20- 70.3 72.9 63.7---
2024-02-28 10:40 pmENE 17.5 23.3 8.5-6.3ENE30.20- 70.3 72.9 63.9---
2024-02-28 10:30 pm E 17.5 19.4----30.20- 70.5 72.9 63.7---
2024-02-28 10:20 pmENE 17.5 21.4 8.2 86.1 E30.20- 70.2 72.9 63.1---
2024-02-28 10:10 pmENE 17.5 21.4 8.2-6.1 E30.19- 70.0 72.7 64.2---
2024-02-28 10:00 pmENE 15.5 21.4----30.20+0.03 70.5 72.7 64.4---
2024-02-28 09:50 pmENE 17.5 21.4 8.2 86.1 E30.19- 70.3 72.7 63.5---
2024-02-28 09:40 pmENE 17.5 23.3----30.19- 70.5 72.9 63.3---
2024-02-28 09:30 pmENE 17.5 21.4----30.19- 70.5 72.9 63.1---
2024-02-28 09:20 pmENE 17.5 23.3 8.2 86.2ESE30.19- 70.5 72.9 63.0---
2024-02-28 09:10 pmENE 19.4 23.3 8.2-6.2ESE30.19- 70.2 72.9 62.4---
2024-02-28 09:00 pmENE 17.5 21.4----30.19+0.03 70.7- 63.7---
2024-02-28 08:50 pmENE 17.5 23.3 8.2 106.1 E30.19- 70.3 72.9 62.6---
2024-02-28 08:40 pmENE 17.5 23.3----30.19- 70.5 72.9 63.1---
2024-02-28 08:30 pmENE 17.5 25.3----30.19- 70.3 72.9 63.1---
2024-02-28 08:20 pm E 17.5 21.4 8.5 86.2 E30.19- 70.2 72.9 63.1---
2024-02-28 08:10 pm E 17.5 23.3 8.5-6.2 E30.19- 70.2 72.9 63.7---
2024-02-28 08:00 pmENE 17.5 23.3----30.19+0.03 70.2 72.9 63.7---
2024-02-28 07:50 pmENE 17.5 21.4 8.2 106.1ENE30.19- 69.8 72.7 63.9---
2024-02-28 07:40 pmENE 17.5 21.4----30.17- 69.8 72.5 64.2---
2024-02-28 07:30 pmENE 17.5 21.4----30.18- 70.2 72.5 63.1---
2024-02-28 07:20 pmENE 17.5 23.3 9.2 86.3 E30.18- 70.2 72.5 63.5---
2024-02-28 07:10 pmENE 17.5 21.4 9.2-6.3 E30.17- 70.2 72.5 63.3---
2024-02-28 07:00 pmENE 17.5 23.3----30.17+0.01 70.3 72.3 63.3---
2024-02-28 06:50 pmENE 17.5 23.3 8.5 86.1 E30.17- 70.3 72.3 63.1---
2024-02-28 06:40 pmENE 17.5 23.3----30.16- 70.3 72.3 63.0---
2024-02-28 06:30 pmENE 17.5 23.3----30.16- 70.7 72.3 63.7---
2024-02-28 06:20 pmENE 17.5 23.3 9.5 86.2 E30.16- 70.7 72.5 62.8---
2024-02-28 06:10 pmENE 17.5 23.3 9.5-6.2 E30.16- 70.7 72.5 62.4---
2024-02-28 06:00 pmENE 17.5 21.4----30.16+0.00 70.9 72.5 63.0---
2024-02-28 05:50 pmENE 17.5 23.3 8.5 86.2 E30.16- 70.7 72.5 62.6---
2024-02-28 05:40 pmENE 17.5 23.3----30.16- 70.9 72.5 62.8---
2024-02-28 05:30 pmENE 17.5 21.4----30.16- 70.9 72.3 62.4---
2024-02-28 05:20 pmENE 17.5 23.3 9.5 86.4 E30.16- 70.9 72.3 62.8---
2024-02-28 05:10 pmENE 17.5 21.4 9.5-6.4 E30.16- 70.9 72.5 62.4---
2024-02-28 05:00 pmENE 17.5 21.4----30.16-0.02 70.9 72.5 61.5---
2024-02-28 04:50 pmENE 17.5 21.4 8.9 86.3 E30.16- 70.9 72.5 60.6---
2024-02-28 04:40 pmENE 15.5 21.4 8.9-6.3 E30.16- 70.9 72.5 61.5---
2024-02-28 04:30 pmENE 17.5 21.4----30.16- 70.7 72.5 61.2---
2024-02-28 04:20 pmENE 15.5 21.4 8.5 86.3 E30.16- 70.9 72.5 61.3---
2024-02-28 04:10 pmENE 15.5 21.4 8.5-6.3 E30.16- 70.7 72.5 60.6---
2024-02-28 04:00 pmENE 15.5 19.4----30.16-0.04 70.9 72.3 60.8---
2024-02-28 03:50 pmENE 15.5 19.4 9.2 86.3 E30.16- 70.9 72.5 60.4---
2024-02-28 03:40 pmENE 15.5 19.4----30.16- 70.9 72.3 59.9---
2024-02-28 03:30 pmENE 15.5 19.4----30.16- 70.9 72.3 59.9---
2024-02-28 03:20 pmENE 15.5 19.4 8.5 86.3ENE30.16- 70.9 72.3 59.5---
2024-02-28 03:10 pmENE 15.5 19.4 8.5-6.3ENE30.16- 70.7 72.3 59.9---
2024-02-28 03:00 pmENE 15.5 21.4----30.16-0.06 70.7 72.3 59.9---
2024-02-28 02:50 pmENE 15.5 21.4 9.2 86.5 E30.16- 70.5 72.3 59.9---
2024-02-28 02:40 pmENE 15.5 21.4----30.17- 70.5 72.3 60.3---
2024-02-28 02:30 pmENE 15.5 21.4----30.17- 70.5 72.3 60.8---
2024-02-28 02:20 pmENE 17.5 21.4 8.5 86.3ENE30.17- 70.5 72.3 60.6---
2024-02-28 02:10 pmENE 17.5 21.4 8.5-6.3ENE30.18- 70.5 72.3 60.8---
2024-02-28 02:00 pmENE 17.5 21.4----30.17-0.06 70.5 72.1 61.2---
2024-02-28 01:50 pmENE 17.5 21.4 8.9 96.3ENE30.18- 70.5 72.1 60.6---
2024-02-28 01:40 pmENE 17.5 21.4----30.19- 70.5 72.1 60.4---
2024-02-28 01:10 pmENE 17.5 23.3 9.2-6.4 E30.20- 70.5 72.1 60.8---
2024-02-28 01:00 pmENE 17.5 21.4----30.20-0.04 70.5 72.1 61.2---
2024-02-28 12:50 pmENE 17.5 23.3 8.9 86.5 E30.21- 70.7 72.1 61.5---
2024-02-28 12:40 pmENE 17.5 23.3----30.21- 70.5 72.1 60.8---
2024-02-28 12:30 pmENE 19.4 23.3----30.22- 70.5 72.1 61.3---
2024-02-28 12:20 pmENE 19.4 23.3 8.9 116.2 NE30.22- 70.7 72.1 61.9---
2024-02-28 12:10 pmENE 19.4 23.3 8.9-6.2 NE30.22- 70.7 72.1 61.7---
2024-02-28 12:00 pmENE 19.4 23.3----30.23-0.01 70.7 72.1 61.3---
2024-02-28 11:50 amENE 19.4 23.3 9.2 86.5 E30.23- 70.7 72.1 61.5---
2024-02-28 11:40 amENE 19.4 23.3 9.2-6.5 E30.23- 70.7 72.1 61.5---
2024-02-28 11:30 amENE 19.4 23.3----30.23- 70.7 72.1 61.5---
2024-02-28 11:20 amENE 19.4 23.3 8.9 96.3 E30.24- 70.5 72.1 61.5---
2024-02-28 11:10 amENE 17.5 23.3 8.9-6.3 E30.24- 70.5 72.1 61.9---
2024-02-28 11:00 am E 17.5 25.3----30.24+0.01 70.2 72.3 63.0---
2024-02-28 10:50 am E 17.5 23.3 8.9 96.3 E30.24- 70.0 72.3 63.3---
2024-02-28 10:40 am E 19.4 23.3----30.24- 70.0 72.3 63.7---
2024-02-28 10:30 am E 19.4 25.3----30.24- 70.5- 62.8---
2024-02-28 10:20 am E 21.4 25.3 8.9 86.3 E30.24- 70.3 72.3 62.4---
2024-02-28 10:10 am E 19.4 25.3 8.9-6.3 E30.24- 70.5 72.3 62.8---
2024-02-28 10:00 amENE 17.5 23.3----30.24+0.03 69.6 72.3 62.8---
2024-02-28 09:50 amENE 19.4 25.3 9.2 86.5 E30.25- 70.2 72.1 63.5---
2024-02-28 09:40 amENE 17.5 23.3 9.2-6.5 E30.24- 70.5 72.1 63.3---
2024-02-28 09:30 amENE 17.5 21.4----30.24- 70.5 72.3 63.1---
2024-02-28 09:20 am E 17.5 19.4 9.2 86.4ENE30.24- 70.3 72.1 63.1---
2024-02-28 09:10 am E 17.5 21.4 9.2-6.4ENE30.24- 70.3 72.1 63.0---
2024-02-28 09:00 am E 19.4 23.3----30.24+0.05 70.3 72.1 62.8---
2024-02-28 08:50 amENE 17.5 25.3 10.2 86.4 E30.24- 70.7 72.1 63.3---

Detailed Wave Summary
for 51001 as of (8:40 am HAST)
1840 GMT on 02/29/2024:

These wave data are displayed in rounded times.

     

Click on the graph icon in the table below to see a time series plot of the last five days of that observation.

5-day plot - Significant Wave Height Significant Wave Height (WVHT): 7.2 ft
5-day plot - Swell Height Swell Height (SwH): 4.9 ft
5-day plot - Swell Period Swell Period (SwP): 8.3 sec
5-day plot - Swell Direction Swell Direction (SwD): E
5-day plot - Wind Wave Height Wind Wave Height (WWH): 5.2 ft
5-day plot - Wind Wave Period Wind Wave Period (WWP): 7.1 sec
5-day plot - Wind Wave Direction Wind Wave Direction (WWD): E
5-day plot - Wave Steepness Wave Steepness (STEEPNESS): STEEP
5-day plot - Average Wave Period Average Wave Period (APD): 6.1 sec
Previous observations
TIME
(HAST)
5-day plot - Wave Height
WVHT
ft
5-day plot - Swell Height
SwH
ft
5-day plot - Swell Period
SwP
sec
5-day plot - Swell Direction
SwD
 
5-day plot - Wind Wave Height
WWH
ft
5-day plot - Wind Wave Period
WWP
sec
5-day plot - Wind Wave Direction
WWD
 
5-day plot - Wave Steepness
STEEPNESS
 
5-day plot - Average Wave Period
APD
sec
2024-02-29 08:10 am 6.9 3.9 8.3 E 5.6 7.1 E AVERAGE 5.9
2024-02-29 07:40 am 6.9 4.3 8.3 E 5.2 7.1 E STEEP 5.9
2024-02-29 07:10 am 7.2 4.3 10.0 E 5.9 7.1 E STEEP 5.9
2024-02-29 06:40 am 7.2 4.6 9.1ESE 5.6 7.1 E STEEP 5.8
2024-02-29 06:10 am 7.5 5.6 7.7 E 5.2 6.7 ENE STEEP 6.0
2024-02-29 05:40 am 6.9 5.2 9.1ESE 4.6 5.9 ENE AVERAGE 6.0
2024-02-29 05:10 am 7.9 5.9 8.3 E 4.9 5.0 E STEEP 6.2
2024-02-29 04:40 am 8.2 5.9 7.7 E 5.6 6.7 ENE STEEP 6.3
2024-02-29 04:10 am 7.9 5.2 8.3ESE 5.6 6.7 E STEEP 6.1
2024-02-29 03:40 am 7.5 5.2 9.1ESE 5.2 6.7 E AVERAGE 6.0
2024-02-29 03:10 am 7.9 5.6 7.7 E 5.6 6.7 E STEEP 6.2
2024-02-29 02:40 am 7.2 4.3 10.0ENE 5.9 7.7 E STEEP 6.0
2024-02-29 02:10 am 7.5 4.3 8.3 E 6.2 6.7 E STEEP 6.1
2024-02-29 01:40 am 7.9 4.9 10.0ENE 6.2 7.7 E STEEP 6.2
2024-02-29 01:10 am 7.5 4.6 13.8SSE 5.9 7.7 E STEEP 6.3
2024-02-29 12:40 am 7.5 3.9 10.0ENE 6.6 7.7 E STEEP 6.2
2024-02-29 12:10 am 7.5 3.6 10.0ENE 6.6 8.3 ESE STEEP 6.1
2024-02-28 11:40 pm 7.5 4.6 9.1ESE 5.9 7.7 E STEEP 6.2
2024-02-28 11:10 pm 8.2 4.3 12.9SSE 6.9 8.3 E STEEP 6.3
2024-02-28 10:40 pm 8.5 4.6 9.1ENE 7.2 7.7 E AVERAGE 6.3
2024-02-28 10:10 pm 8.2 4.3 13.8 S 6.9 8.3 E STEEP 6.1
2024-02-28 09:40 pm 8.2 3.9 13.8SSE 7.2 7.7 E STEEP 6.1
2024-02-28 09:10 pm 8.2 3.3 10.0ENE 7.5 8.3 ESE STEEP 6.2
2024-02-28 08:40 pm 8.2 4.6 10.0 E 6.9 8.3 E AVERAGE 6.1
2024-02-28 08:10 pm 8.5 4.3 13.8SSE 7.2 8.3 E STEEP 6.2
2024-02-28 07:40 pm 8.2 4.3 10.0ENE 6.9 7.7 E AVERAGE 6.1
2024-02-28 07:10 pm 9.2 4.3 10.0ENE 8.2 8.3 E STEEP 6.3
2024-02-28 06:40 pm 8.5 3.9 10.8ENE 7.5 8.3 E STEEP 6.1
2024-02-28 06:10 pm 9.5 4.3 13.8 S 8.2 8.3 E STEEP 6.2
2024-02-28 05:40 pm 8.5 4.3 10.0 E 7.5 8.3 E STEEP 6.2
2024-02-28 05:10 pm 9.5 4.9 9.1 E 7.9 7.7 E STEEP 6.4
2024-02-28 04:40 pm 8.9 5.6 8.3 E 6.9 6.2 ENE STEEP 6.3
2024-02-28 04:10 pm 8.5 4.6 10.0ENE 7.2 8.3 E STEEP 6.3
2024-02-28 03:40 pm 9.2 5.6 10.0ENE 7.2 7.7 E STEEP 6.3
2024-02-28 03:10 pm 8.5 5.6 12.9SSW 6.6 7.7 ENE STEEP 6.3
2024-02-28 02:40 pm 9.2 4.6 10.0ENE 7.9 8.3 E STEEP 6.5
2024-02-28 02:10 pm 8.5 0.0-- 8.5 8.3 ENE STEEP 6.3
2024-02-28 01:40 pm 8.9 4.6 9.1ENE 7.5 7.1 ENE AVERAGE 6.3
2024-02-28 01:10 pm 9.2 4.9 9.1 E 7.5 7.7 ENE AVERAGE 6.4
2024-02-28 12:40 pm 8.9 4.9 10.8ENE 7.2 8.3 E STEEP 6.5
2024-02-28 12:10 pm 8.9 3.9 10.8 NE 7.9 9.1 E AVERAGE 6.2
2024-02-28 11:40 am 9.2 4.3 10.0 NE 8.2 8.3 E STEEP 6.5
2024-02-28 11:10 am 8.9 3.3 10.8 NE 8.2 9.1 E AVERAGE 6.3
2024-02-28 10:40 am 8.9 3.3 10.8ENE 8.2 9.1 E AVERAGE 6.3
2024-02-28 10:10 am 8.9 0.0-- 8.9 8.3 E STEEP 6.3
2024-02-28 09:40 am 9.2 5.2 10.8ENE 7.9 8.3 E STEEP 6.5
2024-02-28 09:10 am 9.2 4.6 10.8 NE 7.9 7.7 ENE STEEP 6.4

Plot of wave energy versus frequency (and period)